Torna al catalogo

FENGYUN 1C DEB

AttivoSSO
NORAD 30675·DEBRIS·🇨🇳 China

Lanciato May 10, 1999 da Taiyuan Satellite Launch Center

Loading…

Prossimi Passaggi (prossime 24 ore)

TLE

AggiornatoSource: Space-Track

Epoca: Sep 14, 2026, 04:31 UTC

1 30675U 99025AQH 26257.18866329  .00001979  00000-0  78548-3 0  9992
2 30675  98.7436 341.9170 0052079  85.8169 304.8442 14.29161419  8220

Traccia FENGYUN 1C DEB in tempo reale con AllMySat

Download on the App Store